Location: Newark
(25.0000°N, 73.5000°E)
Time: 23:42:30
(UTC+00:00)

NOAA 15 - Pass Details

Date: 29 February 2020
Orbit: 797 x 813 km, 98.7° (Epoch: 28 March)

Event Time Altitude Azimuth Distance (km) Brightness Sun altitude
Rises 14:28:45 0° 187° (S) 3,317 7.9 -19.1°
Reaches altitude 10° 14:31:16 10° 195° (SSW) 2,389 7.2 -19.7°
Maximum altitude 14:36:04 35° 261° (W) 1,283 6.2 -20.8°
Drops below altitude 10° 14:40:54 10° 326° (NW) 2,401 7.5 -21.9°
Sets 14:43:26 0° 335° (NNW) 3,334 8.2 -22.4°
